{"data":{"norad_id":66180,"intl_designator":"2025-243D","name":"STARLINK-35335","alt_names":[],"object_type":"PAYLOAD","status":"ACTIVE","operator":null,"country":"US","launch_date":"2025-10-26","launch_site_code":"AFETR","launch_vehicle":null,"mission":null,"orbit_class":"UNKNOWN","rcs_meters":null,"size_class":null,"mass_kg":null,"dimensions":null,"purposes":["comms"],"wikipedia_slug":null,"has_3d_model":false,"image_url":null,"decayed_at":null,"tle_current":{"epoch":"2026-05-24T23:49:24.286944Z","epoch_age_seconds":76478,"freshness":"FRESH","line1":"1 66180U 25243D   26144.99264221  .00021825  00000+0  74679-3 0  9992","line2":"2 66180  53.1544 251.0082 0001354  86.7625 273.3531 15.30201624 32339","mean_motion":15.30201624,"eccentricity":0.0001354,"inclination_deg":53.1544,"raan_deg":251.0082,"arg_perigee_deg":86.7625,"mean_anomaly_deg":273.3531,"bstar":0.00074679,"rev_number":3233,"period_min":94.10524583262401,"perigee_km":474.28227723869,"apogee_km":476.13816366599,"semimajor_km":6853.3472204523,"source":"CELESTRAK","updated_at":"2026-05-25T13:38:21.075700Z"}}}